Probability
0 0 0 0 0 0 0 0 0 0 0 0 0 0 0 0 0 0 0 0 0 0 0 0 0 0 0 0 0 0 0 0 0 1 3 4 3 2 3 2 2 2 1 0
0 0 0 0 0 0 0 0 0 0 0 0 0 0 0 0 0 0 0 0 0 0 0 0 0 0 0 0 0 0 0 0 0 2 3 3 1 1 2 1 1 1 1 0
0 0 0 0 0 0 0 0 0 0 0 0 0 0 0 0 0 0 0 0 0 0 0 0 0 0 0 0 0 0 0 0 0 1 2 1 0 0 0 0 0 0 0 0
0 0 0 0 0 0 0 0 0 0 0 0 0 0 0 0 0 0 0 0 0 0 0 0 0 0 0 0 0 0 0 0 0 0 0 0 0 0 0 0 0 0 0 0
0 0 0 0 0 0 0 0 0 0 0 0 0 0 0 0 0 0 0 0 0 0 0 0 0 0 0 0 0 0 0 0 0 0 0 0 0 0 0 0 0 0 0 0
0 0 0 0 0 0 0 0 0 0 0 0 0 0 0 0 0 0 0 0 0 0 0 0 0 0 0 0 0 0 0 0 0 0 0 0 0 0 0 0 0 0 0 0
0 0 0 0 0 0 0 0 0 0 0 0 0 0 0 0 0 0 0 0 0 0 0 0 0 0 0 0 0 0 0 0 0 0 0 0 0 0 0 0 0 0 0 0
0 0 0 0 0 0 0 0 0 0 0 0 0 0 0 0 0 0 0 0 0 0 0 0 0 0 0 0 0 0 0 0 0 0 0 0 0 0 0 0 0 0 0 0
0 0 0 0 0 0 0 0 0 0 0 0 0 0 0 0 0 0 0 0 0 0 0 0 0 0 0 0 0 0 0 0 0 0 0 0 0 0 0 0 0 0 0 0
0 0 0 0 0 0 0 0 0 0 0 0 0 0 0 0 0 0 0 0 0 0 0 0 0 0 0 0 0 0 0 0 0 0 0 0 0 0 0 0 0 0 0 0
0 0 0 0 0 0 0 0 0 0 0 0 0 0 0 0 0 0 0 0 0 0 0 0 0 0 0 0 0 0 0 0 0 0 0 0 0 0 0 0 0 0 0 0
0 0 0 0 0 0 0 0 0 0 0 0 0 0 0 0 0 0 0 0 0 0 0 0 0 0 0 0 0 0 0 0 0 0 0 0 0 0 0 0 0 0 0 0
0 0 0 0 0 0 0 0 0 0 0 0 0 0 0 0 0 0 0 0 0 0 0 0 0 0 0 0 0 0 0 0 0 0 0 0 0 0 0 0 0 0 0 0
0 0 0 0 0 0 0 0 0 0 0 0 0 0 0 0 0 0 0 0 0 0 0 0 0 0 0 0 0 0 0 0 0 0 0 0 0 0 0 0 0 0 0 0
0 0 0 0 0 0 0 0 0 0 0 0 0 0 0 0 0 0 0 0 0 0 0 0 0 0 0 0 0 0 0 0 0 0 0 0 0 0 0 0 0 0 0 0
0 0 0 0 0 0 0 0 0 0 0 0 0 0 0 0 0 0 0 0 0 0 0 0 0 0 0 0 0 0 0 0 0 0 0 0 0 0 0 0 0 0 0 0
0 0 0 0 0 0 0 0 0 0 0 0 0 0 0 0 0 0 0 0 0 0 0 0 0 0 0 0 0 0 0 0 0 0 0 0 0 0 0 0 0 0 0 0
0 0 0 0 0 0 0 0 0 0 0 0 0 0 0 0 0 0 0 0 0 0 0 0 0 0 0 0 0 0 0 0 0 0 0 0 0 0 0 0 0 0 0 0
0 0 0 0 0 0 0 0 0 0 0 0 0 0 0 0 0 0 0 0 0 0 0 0 0 0 0 0 0 0 0 0 0 0 0 0 0 0 0 0 0 0 0 0
0 0 0 0 0 0 0 0 0 0 0 0 0 0 0 0 0 0 0 0 0 0 0 0 0 0 0 0 0 0 0 0 0 0 0 0 0 0 0 0 0 0 0 0
0 0 0 0 0 0 0 0 0 0 0 0 0 0 0 0 0 0 0 0 0 0 0 0 0 0 0 0 0 0 0 0 0 0 0 0 0 0 0 0 0 0 0 0
0 0 0 0 0 0 0 0 0 0 0 0 0 0 0 0 0 0 0 0 0 0 0 0 0 0 0 0 0 0 0 0 0 0 0 0 0 0 0 0 0 0 0 0
0 0 0 0 0 0 0 0 0 0 0 0 0 0 0 0 0 0 0 0 0 0 0 0 0 0 0 0 0 0 0 0 0 0 0 0 0 0 0 0 0 0 0 0
0 0 0 0 0 0 0 0 0 0 0 0 0 0 0 0 0 0 0 0 0 0 0 0 0 0 0 0 0 0 0 0 0 0 0 0 0 0 0 0 0 0 0 0
0 0 0 0 0 0 0 0 0 0 0 0 0 0 0 0 0 0 0 0 0 0 0 0 0 0 0 0 0 0 0 0 0 0 0 0 0 0 0 0 0 0 0 0
0 0 0 0 0 0 0 0 0 0 0 0 0 0 0 0 0 0 0 0 0 0 0 0 0 0 0 0 0 0 0 0 0 0 0 0 0 0 0 0 0 0 0 0
Wind_Speed
3 4 1 4 5 3 2 3 5 5 2 2 6 9 9 5 3 5 5 4 5 6 4 2 1 1 2 2 2 1 2 2 1 1 1 0 0 0 0 0 1 1 1 1
4 2 4 2 1 2 3 4 5 5 2 3 5 10 8 6 6 6 6 6 6 4 2 2 2 1 1 1 1 1 1 1 0 1 0 0 0 0 0 0 0 1 1 1
4 3 1 1 1 2 4 5 6 5 4 2 4 9 6 5 4 4 4 5 4 4 4 3 1 1 1 1 1 1 1 1 0 1 2 2 2 1 1 1 1 1 1 1
2 2 1 1 3 3 6 4 4 4 3 4 1 7 6 4 4 4 5 4 4 4 3 2 2 1 2 2 1 1 1 1 1 1 1 2 1 0 1 1 1 1 1 1
3 1 1 3 4 3 4 2 2 3 4 4 2 5 8 2 4 5 5 4 4 4 3 3 3 2 2 1 1 0 1 1 1 1 1 1 0 0 1 1 0 1 1 1
3 2 2 3 2 3 2 1 1 1 1 5 6 6 9 4 5 4 3 3 3 3 2 2 1 1 1 1 1 1 1 1 1 1 1 1 1 0 0 1 1 1 1 1
4 2 1 1 0 1 1 2 2 3 2 7 3 6 10 5 3 3 3 3 3 1 1 1 1 1 1 1 1 1 1 1 1 1 1 0 1 1 1 1 1 1 1 1
2 5 2 1 2 2 3 4 5 5 5 5 3 8 7 3 2 1 2 2 2 2 1 2 2 2 1 1 1 0 0 1 1 1 1 1 1 0 1 1 1 1 1 2
3 5 2 1 1 3 2 3 2 2 1 3 6 6 7 2 2 2 3 3 3 3 2 2 2 1 1 1 1 1 1 1 1 1 1 2 1 1 1 1 0 1 1 2
4 4 4 2 1 1 2 3 2 3 2 5 6 5 5 4 4 3 3 3 3 3 3 2 2 2 1 1 1 1 0 1 1 1 1 1 2 2 1 1 1 1 1 1
2 3 3 1 3 4 2 2 2 2 3 4 5 8 4 4 3 3 4 3 3 3 2 2 2 2 1 1 1 1 1 1 1 1 1 2 2 2 1 1 1 1 1 1
2 2 4 6 3 1 3 4 5 4 5 4 5 9 1 2 2 2 3 3 3 2 2 2 2 2 2 2 2 1 1 1 1 1 1 1 2 2 1 2 2 2 1 1
3 3 2 5 2 1 2 3 3 2 2 4 6 10 1 1 2 2 3 3 3 3 2 2 2 1 2 2 2 2 1 1 1 1 1 1 1 1 2 2 2 2 2 2
2 3 6 9 6 3 4 5 4 4 5 7 11 12 8 6 6 5 4 3 3 2 2 2 2 2 2 2 1 2 2 1 1 1 1 1 1 1 2 2 2 1 1 2
3 4 6 8 7 5 8 9 8 10 10 10 12 12 13 9 7 5 4 4 4 4 4 3 3 2 2 2 2 2 2 1 1 1 1 2 2 1 1 1 2 1 1 2
2 3 2 6 5 6 10 12 12 13 11 13 13 16 10 7 4 5 5 5 5 6 5 4 3 3 3 3 2 2 2 2 1 1 1 2 1 1 1 2 1 2 2 2
4 4 2 6 4 4 11 12 12 9 9 9 14 14 6 6 7 7 7 7 7 7 6 5 4 4 4 3 2 3 2 2 1 1 1 1 1 1 2 2 2 2 2 2
6 5 3 2 1 10 10 3 7 9 10 10 11 9 7 8 7 6 5 6 7 7 5 4 3 3 3 2 2 2 2 1 2 1 2 1 1 1 2 2 2 2 2 2
7 7 4 3 6 12 10 4 4 6 10 9 11 10 8 6 5 6 5 5 6 5 4 3 3 2 2 2 2 1 1 1 2 2 2 2 2 2 2 2 2 2 2 2
2 4 5 5 6 10 8 3 2 2 8 5 6 8 6 2 4 7 4 3 3 2 2 2 2 1 1 2 2 1 2 2 3 3 3 2 2 2 2 2 2 2 2 2
4 4 7 8 9 12 7 2 4 4 8 2 4 6 5 6 7 5 3 2 2 2 2 1 1 1 2 2 1 2 2 3 3 2 2 2 2 2 2 2 2 1 1 1
9 8 8 7 9 13 4 6 8 8 2 2 3 5 6 6 6 5 4 3 2 2 2 1 1 2 2 1 1 2 3 3 2 2 2 2 1 1 1 1 1 1 1 1
9 10 8 11 11 4 6 8 6 3 3 4 4 4 4 4 5 4 4 3 2 2 2 1 1 2 2 1 1 3 3 2 2 1 1 1 1 1 1 1 1 1 1 0
6 3 5 7 9 7 5 5 4 4 5 4 4 3 2 4 4 4 3 3 2 2 2 2 1 2 3 2 2 3 3 2 2 2 2 1 1 1 1 1 1 1 1 1
7 6 5 9 8 6 6 7 7 5 4 3 3 3 3 4 4 4 4 3 3 3 2 1 2 3 4 3 3 2 2 1 2 2 2 2 1 1 1 1 2 2 2 2
7 9 10 11 8 6 6 4 5 5 6 5 4 4 3 4 5 4 4 3 3 2 2 2 2 3 3 3 3 3 2 2 2 2 2 2 1 1 1 1 1 3 3 3
Wind_Direction
21 66 195 229 217 221 198 221 258 266 270 262 251 265 273 271 250 257 261 260 253 253 271 299 314 360 23 25 23 13 15 8 39 53 74 118 158 43 75 79 108 138 140 149
41 268 252 259 244 239 241 253 268 285 292 261 273 273 268 251 238 234 240 247 248 261 302 314 331 356 1 341 344 354 341 342 52 10 19 123 112 140 113 59 110 144 147 152
187 256 286 169 257 253 256 240 250 267 314 296 301 291 263 255 241 246 241 242 242 231 240 258 274 286 294 287 284 287 299 339 27 42 53 52 53 58 52 13 359 348 206 167
242 290 316 244 244 221 254 248 250 258 275 277 240 285 276 257 268 259 255 248 246 244 233 235 239 275 276 269 284 292 317 3 26 77 102 102 117 318 267 259 264 297 263 201
254 264 269 243 251 221 244 276 235 241 238 270 237 250 279 277 271 265 256 249 252 247 236 234 233 239 274 296 298 316 23 17 26 70 109 133 119 341 338 349 325 283 289 266
262 262 229 234 264 218 223 352 12 22 157 259 225 214 272 231 237 261 270 264 268 265 262 273 295 328 339 353 3 24 48 19 19 51 90 132 175 111 27 336 300 292 305 297
306 284 271 218 29 16 112 102 11 340 299 251 215 216 251 244 241 232 265 288 293 295 279 297 323 326 318 334 343 11 59 14 7 13 16 279 232 204 213 247 267 295 301 297
265 283 257 245 199 207 211 173 178 214 237 273 253 234 251 251 260 284 289 303 329 325 300 287 270 261 269 287 324 358 327 330 344 349 335 332 338 274 264 274 268 263 278 286
204 258 307 290 289 164 175 211 203 178 257 271 259 273 291 261 304 324 331 343 328 309 300 289 285 267 255 247 241 238 251 316 330 328 338 350 350 335 316 316 303 292 328 329
179 254 277 292 349 322 188 164 122 157 205 260 274 257 252 265 279 308 325 318 311 315 318 319 314 297 283 275 284 305 285 275 338 360 351 347 340 331 328 332 327 314 324 327
169 210 289 310 208 208 161 166 174 184 198 209 267 266 229 220 238 259 275 286 292 306 312 321 332 334 329 351 352 342 357 3 7 8 356 350 342 343 343 324 310 307 309 300
179 157 257 255 246 222 193 195 172 191 241 226 246 268 237 191 245 266 290 306 312 309 314 327 338 358 6 359 348 335 344 344 335 348 353 333 333 346 350 333 324 316 297 286
157 144 318 325 314 312 235 217 199 194 195 217 228 261 271 349 315 302 304 308 308 318 330 340 343 346 343 337 331 326 325 317 325 334 326 331 334 339 334 320 321 321 313 300
134 177 201 225 243 221 246 243 212 186 213 236 238 259 280 291 290 295 295 288 292 295 300 309 311 305 307 308 311 321 317 318 328 332 317 308 307 309 309 317 320 315 309 303
130 217 235 254 268 257 250 249 229 220 222 229 251 257 267 266 261 265 269 275 281 284 288 288 290 293 296 302 308 309 308 314 315 315 312 301 307 312 317 323 323 318 312 303
164 216 245 270 267 269 269 257 242 239 238 243 258 266 264 269 263 259 259 264 267 271 274 278 282 284 282 284 288 294 295 309 311 279 284 299 317 329 323 318 321 323 316 310
185 173 201 262 297 320 266 239 227 228 224 219 241 255 270 274 265 255 254 256 259 265 268 270 268 265 272 270 272 270 278 299 296 284 290 293 301 311 311 316 322 319 308 306
181 171 193 252 5 247 248 212 213 230 244 235 247 260 257 259 269 261 252 247 258 265 267 271 273 278 282 281 275 267 277 278 273 270 270 271 271 283 300 306 301 303 301 289
195 182 185 187 239 269 280 241 196 220 258 237 241 260 274 287 297 281 261 240 251 259 256 254 255 260 269 274 267 254 265 271 269 263 261 259 251 254 268 275 281 291 291 289
171 182 187 194 219 245 251 219 187 172 269 246 228 251 266 294 275 273 282 273 266 267 269 267 266 263 263 275 259 232 249 258 261 262 264 263 252 243 251 260 274 284 276 282
174 199 211 217 235 256 251 209 131 195 256 262 215 231 227 223 240 269 298 299 281 282 280 275 262 254 254 258 240 240 248 255 267 270 271 270 259 250 251 260 275 276 281 297
191 194 207 198 225 250 195 153 193 226 261 245 237 236 237 248 263 273 280 278 285 292 293 281 275 283 283 264 236 250 260 272 283 272 263 265 268 264 262 255 277 279 256 274
209 203 202 206 223 240 174 198 219 223 237 246 250 256 246 250 263 272 273 272 281 282 285 289 264 287 301 286 247 249 272 282 275 268 265 275 288 289 284 259 257 272 271 252
238 225 215 247 254 246 236 250 258 245 245 260 263 260 241 248 254 264 268 279 283 289 286 287 272 274 285 292 287 264 270 265 244 246 256 261 259 276 294 282 260 246 238 238
217 193 218 248 264 279 255 238 247 255 258 266 266 249 237 240 254 255 263 270 271 280 284 269 258 268 280 292 293 287 275 248 240 245 251 257 254 252 267 274 262 258 249 238
200 195 206 236 233 225 246 235 232 237 248 249 252 267 260 237 247 253 258 262 264 268 274 279 280 280 285 288 290 295 282 240 223 235 242 241 242 244 239 250 295 280 277 282